FW8496 Weather Reports


Display with metric or nautical units.
time (UTC)temp
F
wind
direction
speed
MPH
gust
MPH
rain 1hr
in
rain 24hr
in
rain mn
in
humidity
%
barometer
mb
20260901103542 57 80 4.0 8.0 0.01 0.31 0.30 91 1025.5
20260901103051 57 96 4.0 10.0 0.01 0.31 0.30 91 1025.5
20260901102542 57 66 5.0 10.0 0.01 0.31 0.30 91 1025.5
20260901102042 57 74 4.0 8.0 0.02 0.31 0.30 91 1025.3
20260901101607 57 71 3.0 8.0 0.04 0.31 0.30 92 1025.5
20260901101046 57 67 3.0 8.0 0.05 0.31 0.30 92 1025.7
20260901100546 57 94 3.0 7.0 0.05 0.31 0.30 92 1025.7
20260901100054 57 77 3.0 8.0 0.06 0.31 0.30 91 1025.8
20260901095542 57 88 4.0 8.0 0.06 0.31 0.30 91 1025.9
20260901095043 57 85 4.0 8.0 0.10 0.31 0.30 91 1025.9
20260901094605 57 67 3.0 7.0 0.14 0.31 0.30 91 1026.0
20260901094043 57 65 2.0 5.0 0.20 0.31 0.30 91 1026.1
20260901093542 57 75 1.0 5.0 0.19 0.30 0.29 91 1026.2
20260901093054 57 39 2.0 6.0 0.19 0.30 0.29 91 1026.0
20260901092542 57 37 3.0 8.0 0.19 0.30 0.29 91 1026.0
20260901092045 57 46 3.0 8.0 0.19 0.29 0.28 90 1026.4
20260901091602 57 96 2.0 7.0 0.17 0.27 0.26 90 1026.4
20260901091041 57 0 2.0 9.0 0.18 0.26 0.25 90 1026.4
20260901090543 58 169 3.0 10.0 0.23 0.26 0.25 89 1026.4
20260901090052 58 171 5.0 10.0 0.24 0.25 0.24 89 1026.3
20260901085542 58 148 4.0 11.0 0.24 0.25 0.24 88 1026.2
20260901085045 58 143 4.0 13.0 0.19 0.20 0.19 88 1026.3
20260901084556 59 188 7.0 13.0 0.16 0.17 0.16 87 1026.3
20260901084042 59 167 2.0 7.0 0.10 0.11 0.10 88 1026.4
20260901083541 59 249 3.0 7.0 0.10 0.11 0.10 86 1026.2
20260901083111 59 300 0.0 7.0 0.10 0.11 0.10 87 1025.5
20260901082543 60 0 1.0 9.0 0.10 0.11 0.10 86 1025.2
20260901082042 60 84 4.0 9.0 0.09 0.10 0.09 87 1024.9
20260901081556 60 92 3.0 9.0 0.09 0.10 0.09 86 1025.1
20260901081042 60 159 1.0 5.0 0.07 0.08 0.07 85 1025.6
20260901080542 60 333 0.0 6.0 0.02 0.03 0.02 83 1025.8
20260901080105 60 333 0.0 9.0 0.00 0.01 0.00 83 1025.7
20260901075543 60 352 3.0 9.0 0.00 0.01 0.00 82 1025.1
20260901075042 60 16 5.0 9.0 0.00 0.01 0.00 81 1024.8
20260901074558 60 46 6.0 9.0 0.00 0.01 0.00 80 1024.9
20260901074042 60 19 4.0 6.0 0.00 0.01 0.00 79 1024.9
20260901073542 60 5 3.0 6.0 0.00 0.01 0.00 79 1025.1
20260901073056 60 15 4.0 6.0 0.00 0.01 0.00 79 1025.2
20260901072542 61 321 1.0 3.0 0.00 0.01 0.00 78 1025.1
20260901072042 61 321 1.0 3.0 0.00 0.01 0.00 78 1025.0
20260901071628 61 321 1.0 4.0 0.00 0.01 0.00 78 1025.1
20260901071042 61 321 2.0 4.0 0.00 0.01 0.00 78 1025.1
20260901070541 61 321 2.0 4.0 0.00 0.01 0.00 77 1025.0
20260901070053 61 321 2.0 6.0 0.00 0.01 0.00 77 1025.0
20260901065542 61 321 2.0 6.0 0.00 0.01 0.00 77 1025.1
20260901065042 61 292 2.0 5.0 0.00 0.01 0.00 76 1025.1
20260901064556 61 35 1.0 4.0 0.00 0.01 0.00 75 1025.1
20260901064043 61 65 2.0 4.0 0.00 0.01 0.00 72 1025.1
20260901063542 61 95 2.0 7.0 0.00 0.01 0.00 74 1025.0
20260901063056 61 94 3.0 7.0 0.00 0.01 0.00 74 1025.1
20260901062542 60 78 1.0 4.0 0.00 0.01 0.00 74 1025.1
20260901062044 60 78 2.0 4.0 0.00 0.01 0.00 75 1025.1
20260901061635 60 78 3.0 6.0 0.00 0.01 0.00 75 1025.1
20260901061043 60 90 3.0 7.0 0.00 0.01 0.00 76 1024.9
20260901060544 60 86 3.0 9.0 0.00 0.01 0.00 76 1024.8
20260901060100 60 85 4.0 9.0 0.00 0.01 0.00 76 1024.7
20260901055542 60 73 6.0 10.0 0.00 0.01 0.01 77 1024.6
20260901055042 60 65 4.0 10.0 0.00 0.01 0.01 77 1024.6
20260901054553 60 83 5.0 11.0 0.00 0.01 0.01 77 1024.6
20260901054043 60 90 5.0 11.0 0.00 0.01 0.01 77 1024.7
20260901053543 60 80 6.0 11.0 0.00 0.01 0.01 77 1024.5
20260901053049 60 82 7.0 11.0 0.00 0.01 0.01 77 1024.7
20260901052542 61 96 5.0 11.0 0.00 0.01 0.01 77 1024.8
20260901052042 61 88 6.0 11.0 0.00 0.01 0.01 77 1024.9
20260901051550 61 85 6.0 10.0 0.00 0.01 0.01 76 1024.9
20260901051042 61 74 5.0 10.0 0.00 0.01 0.01 77 1025.0
20260901050542 61 67 4.0 10.0 0.00 0.01 0.01 76 1025.1
20260901050059 62 74 6.0 10.0 0.00 0.01 0.01 78 1025.3
20260901045544 62 57 5.0 9.0 0.00 0.01 0.01 78 1025.5
20260901045045 62 80 5.0 8.0 0.00 0.01 0.01 76 1025.5
20260901044604 63 69 3.0 6.0 0.00 0.01 0.01 75 1025.9
20260901044043 63 167 2.0 7.0 0.00 0.01 0.01 74 1026.2
20260901043546 63 167 2.0 7.0 0.00 0.01 0.01 72 1026.4
20260901043113 63 200 2.0 4.0 0.00 0.01 0.01 70 1026.4
20260901042542 63 244 2.0 3.0 0.00 0.01 0.01 69 1026.2
20260901042042 63 244 1.0 4.0 0.00 0.01 0.01 69 1026.0
20260901041550 63 244 2.0 4.0 0.00 0.01 0.01 68 1025.9
20260901041042 63 244 0.0 3.0 0.00 0.01 0.01 67 1025.7
20260901040542 63 244 1.0 4.0 0.00 0.01 0.01 66 1025.5
20260901040125 63 96 0.0 8.0 0.00 0.01 0.01 66 1025.4
20260901035543 63 0 1.0 8.0 0.00 0.01 0.01 66 1025.3
20260901035041 63 94 3.0 9.0 0.00 0.01 0.01 66 1025.3
20260901034607 63 108 4.0 9.0 0.00 0.01 0.01 67 1025.3
20260901034042 63 105 4.0 9.0 0.00 0.01 0.01 67 1025.3
20260901033542 63 120 4.0 9.0 0.00 0.01 0.01 68 1025.3
20260901033122 63 110 2.0 8.0 0.00 0.01 0.01 69 1025.5
20260901032543 63 89 3.0 11.0 0.00 0.01 0.01 70 1025.5
20260901032043 63 123 4.0 11.0 0.00 0.01 0.01 71 1025.5
20260901031606 63 30 4.0 8.0 0.00 0.01 0.01 71 1025.4
20260901031042 63 64 3.0 8.0 0.00 0.01 0.01 72 1025.7
20260901030545 63 98 2.0 8.0 0.00 0.01 0.01 72 1025.7
20260901030058 63 107 2.0 8.0 0.00 0.01 0.01 72 1025.8
20260901025542 64 123 3.0 8.0 0.00 0.01 0.01 71 1025.8
20260901025042 64 113 3.0 9.0 0.00 0.01 0.01 72 1025.8
20260901024554 64 136 4.0 9.0 0.00 0.01 0.01 72 1025.6
20260901024043 64 136 1.0 9.0 0.00 0.01 0.01 70 1025.5
20260901023542 64 94 4.0 11.0 0.00 0.01 0.01 70 1025.1
20260901023059 64 98 5.0 11.0 0.00 0.01 0.01 69 1024.9
20260901022542 64 39 6.0 12.0 0.00 0.01 0.01 68 1024.9
20260901022042 64 38 7.0 12.0 0.00 0.01 0.01 69 1024.8
20260901021550 64 20 8.0 12.0 0.00 0.01 0.01 69 1024.7
20260901021042 64 28 6.0 12.0 0.00 0.01 0.01 70 1024.7
20260901020542 64 55 7.0 13.0 0.00 0.01 0.01 70 1024.7
20260901020051 64 36 5.0 14.0 0.00 0.01 0.01 70 1024.8
20260901015542 64 37 7.0 14.0 0.00 0.01 0.01 70 1024.8
20260901015042 64 49 8.0 12.0 0.00 0.01 0.01 71 1024.7
20260901014605 64 50 7.0 12.0 0.00 0.01 0.01 71 1025.1
20260901014042 64 32 6.0 12.0 0.00 0.01 0.01 73 1025.0
20260901013543 64 37 7.0 11.0 0.00 0.01 0.01 74 1024.9
20260901013100 64 66 4.0 10.0 0.00 0.01 0.01 75 1024.9
20260901012544 64 22 5.0 13.0 0.00 0.01 0.01 75 1025.0
20260901012046 64 54 5.0 13.0 0.00 0.01 0.01 74 1024.8
20260901011555 64 60 5.0 9.0 0.00 0.01 0.01 75 1024.8
20260901011042 64 67 4.0 9.0 0.01 0.01 0.01 75 1024.8
20260901010542 64 20 4.0 9.0 0.01 0.01 0.01 77 1024.7
20260901005542 64 83 3.0 15.0 0.01 0.01 0.01 74 1024.7
20260901005045 64 129 5.0 15.0 0.01 0.01 0.01 74 1024.6
20260901004600 64 64 4.0 14.0 0.01 0.01 0.01 79 1024.5
20260901004042 64 126 6.0 15.0 0.01 0.01 0.01 79 1024.5
20260901003545 64 111 7.0 16.0 0.01 0.01 0.01 79 1024.6
20260901003101 64 92 8.0 16.0 0.01 0.01 0.01 79 1024.5
20260901002542 65 133 9.0 18.0 0.01 0.01 0.01 79 1024.3
20260901002042 66 140 10.0 18.0 0.01 0.01 0.01 77 1024.4
20260901001619 67 116 6.0 16.0 0.01 0.01 0.01 75 1024.5
20260901001042 67 132 8.0 18.0 0.00 0.00 0.00 70 1024.6
20260901000542 68 126 8.0 18.0 0.00 0.00 0.00 66 1024.4
20260831234555 71 173 4.0 16.0 0.00 0.00 0.00 54 1023.6
20260831234043 72 161 10.0 16.0 0.00 0.00 0.00 55 1023.6
20260831233542 73 128 7.0 12.0 0.00 0.00 0.00 52 1023.2
20260831233058 73 118 6.0 13.0 0.00 0.00 0.00 49 1023.1
20260831232543 73 135 7.0 13.0 0.00 0.00 0.00 49 1023.0
20260831232043 74 133 6.0 14.0 0.00 0.00 0.00 47 1023.0
20260831231603 74 144 7.0 14.0 0.00 0.00 0.00 48 1023.0
20260831231043 75 134 7.0 14.0 0.00 0.00 0.00 44 1022.9
20260831230543 75 130 6.0 13.0 0.00 0.00 0.00 44 1022.9
20260831230100 75 109 6.0 13.0 0.00 0.00 0.00 45 1023.0
20260831225542 76 123 6.0 13.0 0.00 0.00 0.00 44 1023.1
20260831225044 76 103 6.0 12.0 0.00 0.00 0.00 45 1023.3
20260831224602 76 94 7.0 18.0 0.00 0.00 0.00 44 1023.2
20260831224042 77 57 7.0 20.0 0.00 0.00 0.00 43 1023.2
20260831223544 78 130 7.0 23.0 0.00 0.00 0.00 45 1023.3
20260831223055 79 119 8.0 23.0 0.00 0.00 0.00 38 1023.3
20260831222542 80 148 13.0 22.0 0.00 0.00 0.00 37 1023.5
20260831222041 82 134 7.0 17.0 0.00 0.00 0.00 37 1023.5
20260831221605 82 139 2.0 11.0 0.00 0.00 0.00 33 1023.1
20260831221043 82 360 6.0 14.0 0.00 0.00 0.00 33 1022.7
20260831220543 83 344 8.0 15.0 0.00 0.00 0.00 32 1022.6
20260831220104 84 16 9.0 18.0 0.00 0.00 0.00 31 1022.7
20260831215543 85 317 9.0 18.0 0.00 0.00 0.00 30 1022.7
20260831215043 87 28 3.0 11.0 0.00 0.00 0.00 30 1022.8
20260831214604 87 29 6.0 11.0 0.00 0.00 0.00 29 1022.7
20260831214042 89 311 5.0 10.0 0.00 0.00 0.00 27 1022.7
20260831213542 90 310 2.0 6.0 0.00 0.00 0.00 27 1022.8
20260831213057 90 250 2.0 9.0 0.00 0.00 0.00 27 1022.9
20260831212542 90 184 3.0 12.0 0.00 0.00 0.00 27 1022.9
20260831212044 90 252 4.0 12.0 0.00 0.00 0.00 26 1022.9
20260831211557 91 243 5.0 13.0 0.00 0.00 0.00 26 1023.0
20260831211042 91 271 7.0 13.0 0.00 0.00 0.00 26 1023.1
20260831210541 90 246 4.0 12.0 0.00 0.00 0.00 27 1023.1
20260831210056 89 223 6.0 12.0 0.00 0.00 0.00 27 1023.3
20260831205544 89 267 7.0 15.0 0.00 0.00 0.00 27 1023.3
20260831205042 89 264 7.0 17.0 0.00 0.00 0.00 27 1023.3
20260831204555 90 240 9.0 17.0 0.00 0.00 0.00 26 1023.3
20260831204044 91 198 4.0 11.0 0.00 0.00 0.00 25 1023.3
20260831203542 91 83 0.0 11.0 0.00 0.00 0.00 26 1023.2
20260831203105 91 227 6.0 11.0 0.00 0.00 0.00 25 1023.3
20260831202543 91 180 3.0 15.0 0.00 0.00 0.00 26 1023.4
20260831202042 91 184 8.0 22.0 0.00 0.00 0.00 26 1023.4
20260831201600 91 188 10.0 22.0 0.00 0.00 0.00 25 1023.5
20260831201042 91 205 6.0 15.0 0.00 0.00 0.00 25 1023.4
20260831200542 90 186 7.0 15.0 0.00 0.00 0.00 26 1023.4
20260831200053 90 185 3.0 18.0 0.00 0.00 0.00 26 1023.4
20260831195541 89 148 7.0 18.0 0.00 0.00 0.00 26 1023.5
20260831195041 88 198 7.0 18.0 0.00 0.00 0.00 28 1023.6
20260831194607 87 263 6.0 15.0 0.00 0.00 0.00 28 1023.6
20260831194042 87 248 6.0 15.0 0.00 0.00 0.00 28 1023.7
20260831193542 87 292 8.0 15.0 0.00 0.00 0.00 28 1023.8
20260831193049 86 245 6.0 13.0 0.00 0.00 0.00 28 1023.9
20260831192542 86 296 2.0 9.0 0.00 0.00 0.00 29 1024.0
20260831192042 86 304 4.0 9.0 0.00 0.00 0.00 28 1023.9
20260831191601 86 282 3.0 14.0 0.00 0.00 0.00 29 1024.1
20260831191042 85 267 6.0 14.0 0.00 0.00 0.00 29 1024.3
20260831190542 85 251 5.0 11.0 0.00 0.00 0.00 30 1024.4
20260831190105 85 245 4.0 14.0 0.00 0.00 0.00 30 1024.4
20260831185541 85 328 5.0 14.0 0.00 0.00 0.00 30 1024.5
20260831185041 85 302 8.0 14.0 0.00 0.00 0.00 29 1024.5
20260831184556 85 311 6.0 14.0 0.00 0.00 0.00 29 1024.5
20260831184041 86 305 9.0 14.0 0.00 0.00 0.00 29 1024.5
20260831183542 87 309 7.0 14.0 0.00 0.00 0.00 28 1024.6
20260831183102 87 277 6.0 14.0 0.00 0.00 0.00 28 1024.7
20260831182545 87 305 7.0 14.0 0.00 0.00 0.00 28 1024.7
20260831182042 87 265 4.0 11.0 0.00 0.00 0.00 28 1024.7
20260831181601 86 291 5.0 11.0 0.00 0.00 0.00 29 1024.8
20260831181041 85 272 2.0 9.0 0.00 0.00 0.00 29 1024.9
20260831180541 85 311 5.0 9.0 0.00 0.00 0.00 30 1024.9
20260831180053 85 348 3.0 9.0 0.00 0.00 0.00 30 1025.0
20260831175542 84 44 2.0 8.0 0.00 0.00 0.00 30 1024.9
20260831175042 83 257 1.0 9.0 0.00 0.00 0.00 31 1025.0
20260831174602 81 132 3.0 9.0 0.00 0.00 0.00 32 1025.1
20260831174045 80 18 2.0 15.0 0.00 0.00 0.00 33 1025.0
20260831173542 80 312 9.0 17.0 0.00 0.00 0.00 34 1025.0
20260831173130 79 333 9.0 17.0 0.00 0.00 0.00 35 1025.0
20260831172543 79 330 6.0 17.0 0.00 0.00 0.00 34 1025.1
20260831172042 78 345 7.0 15.0 0.00 0.00 0.00 35 1025.1
20260831171601 78 298 5.0 16.0 0.00 0.00 0.00 35 1025.1
20260831171041 78 343 9.0 16.0 0.00 0.00 0.00 34 1025.1
20260831170542 77 34 9.0 16.0 0.00 0.00 0.00 35 1025.2
20260831170121 77 352 8.0 16.0 0.00 0.00 0.00 35 1025.1
20260831165542 77 360 10.0 16.0 0.00 0.00 0.00 35 1025.3
20260831165042 77 32 8.0 21.0 0.00 0.00 0.00 36 1025.3
20260831164609 76 343 10.0 21.0 0.00 0.00 0.00 36 1025.2
20260831164045 76 352 8.0 17.0 0.00 0.00 0.00 36 1025.3
20260831163542 76 37 10.0 17.0 0.00 0.00 0.00 37 1025.3
20260831163055 75 19 11.0 19.0 0.00 0.00 0.00 37 1025.4
20260831162545 75 352 10.0 19.0 0.00 0.00 0.00 38 1025.5
20260831162043 74 19 9.0 21.0 0.00 0.00 0.00 39 1025.3
20260831161552 73 343 14.0 22.0 0.00 0.00 0.00 39 1025.3
20260831161041 73 37 12.0 22.0 0.00 0.00 0.00 40 1025.3
20260831160541 72 30 11.0 19.0 0.00 0.00 0.00 42 1025.2
20260831160055 71 36 11.0 20.0 0.00 0.00 0.00 43 1025.3
20260831155542 71 46 11.0 20.0 0.00 0.00 0.00 44 1025.3
20260831155043 71 329 11.0 20.0 0.00 0.00 0.00 44 1025.3
20260831154620 70 19 10.0 20.0 0.00 0.00 0.00 45 1025.3
20260831154041 70 26 10.0 20.0 0.00 0.00 0.00 46 1025.4
20260831153542 70 14 12.0 20.0 0.00 0.00 0.00 46 1025.3
20260831153049 70 336 13.0 20.0 0.00 0.00 0.00 47 1025.5
20260831152541 70 315 12.0 20.0 0.00 0.00 0.00 47 1025.6
20260831152042 69 352 12.0 20.0 0.00 0.00 0.00 47 1025.7
20260831151552 68 5 11.0 20.0 0.00 0.00 0.00 50 1025.7
20260831151042 67 313 9.0 20.0 0.00 0.00 0.00 52 1025.7
20260831150542 66 30 12.0 21.0 0.00 0.00 0.00 53 1026.0
20260831145542 65 346 11.0 21.0 0.00 0.00 0.00 56 1026.0
20260831145042 65 360 11.0 19.0 0.00 0.00 0.00 57 1026.0
20260831144605 65 21 11.0 18.0 0.00 0.00 0.00 58 1026.2
20260831144042 65 13 9.0 20.0 0.00 0.00 0.00 58 1026.3
20260831143542 64 355 11.0 21.0 0.00 0.00 0.00 59 1026.2
20260831143110 64 342 14.0 21.0 0.00 0.00 0.00 59 1026.1
20260831142544 64 41 11.0 23.0 0.00 0.00 0.00 59 1026.2
20260831142042 64 338 13.0 23.0 0.00 0.00 0.00 59 1026.3
20260831141559 64 345 11.0 19.0 0.00 0.00 0.00 59 1026.3
20260831141043 64 360 11.0 21.0 0.00 0.00 0.00 59 1026.3
20260831140541 64 12 13.0 23.0 0.00 0.00 0.00 59 1026.3
20260831140052 64 31 12.0 23.0 0.00 0.00 0.00 59 1026.3
20260831135542 64 34 14.0 23.0 0.00 0.00 0.00 59 1026.3
20260831135041 64 318 12.0 21.0 0.00 0.00 0.00 59 1026.4
20260831134556 63 348 12.0 21.0 0.00 0.00 0.00 60 1026.4
20260831134041 63 336 11.0 20.0 0.00 0.00 0.00 59 1026.3
20260831133541 63 32 11.0 17.0 0.00 0.00 0.00 58 1026.3
20260831133050 64 19 10.0 19.0 0.00 0.00 0.00 58 1026.3
20260831132541 64 355 10.0 20.0 0.00 0.00 0.00 58 1026.4
20260831132041 63 355 11.0 20.0 0.00 0.00 0.00 58 1026.0
20260831131559 63 19 10.0 20.0 0.00 0.00 0.00 58 1025.9
20260831131043 63 330 12.0 19.0 0.00 0.00 0.00 59 1025.9
20260831130546 63 333 11.0 20.0 0.00 0.00 0.00 58 1026.0
20260831130059 63 331 13.0 20.0 0.00 0.00 0.00 58 1025.9
20260831125542 63 360 12.0 21.0 0.00 0.00 0.00 57 1025.8
20260831125042 64 13 10.0 21.0 0.00 0.00 0.00 57 1025.7
20260831124600 64 352 12.0 21.0 0.00 0.00 0.00 56 1025.6
20260831124041 64 352 11.0 22.0 0.00 0.00 0.00 56 1025.3
20260831123541 64 352 12.0 22.0 0.00 0.00 0.00 56 1025.2
20260831123100 64 329 12.0 21.0 0.00 0.00 0.00 55 1025.2
20260831122541 64 327 13.0 22.0 0.00 0.00 0.00 55 1025.1
20260831122041 64 352 12.0 22.0 0.00 0.00 0.00 54 1024.9
20260831121556 64 360 12.0 21.0 0.00 0.00 0.00 53 1025.0
20260831121042 64 341 12.0 21.0 0.00 0.00 0.00 54 1025.1
20260831120542 64 346 11.0 19.0 0.00 0.00 0.00 54 1025.1
20260831120056 64 360 12.0 19.0 0.00 0.00 0.00 54 1025.1
20260831115542 64 352 12.0 17.0 0.00 0.00 0.00 55 1025.3
20260831115041 64 322 10.0 18.0 0.00 0.00 0.00 55 1025.3
20260831114556 63 315 11.0 18.0 0.00 0.00 0.00 56 1025.2
20260831114042 63 308 9.0 16.0 0.00 0.00 0.00 56 1025.1
20260831113543 63 306 9.0 16.0 0.00 0.00 0.00 56 1025.0
20260831113056 64 318 9.0 14.0 0.00 0.00 0.00 55 1025.0
20260831112545 64 345 9.0 13.0 0.00 0.00 0.00 55 1024.7
20260831112042 64 23 9.0 13.0 0.00 0.00 0.00 55 1024.6
20260831111619 64 344 6.0 13.0 0.00 0.00 0.00 55 1024.7
20260831111042 64 346 6.0 15.0 0.00 0.00 0.00 54 1024.5
20260831110542 64 19 8.0 15.0 0.00 0.00 0.00 54 1024.6
20260831110056 64 355 8.0 16.0 0.00 0.00 0.00 54 1024.6
20260831105544 64 340 10.0 19.0 0.00 0.00 0.00 54 1024.7
20260831105045 64 360 9.0 19.0 0.00 0.00 0.00 54 1024.6
20260831104606 64 349 10.0 19.0 0.00 0.00 0.00 54 1024.7
20260831104042 64 323 10.0 21.0 0.00 0.00 0.00 54 1024.7